Weather in Beloevo

Russia / Perm Krai     59°08′25″N   54°29′28″E
temp.,
°C
wind,
m/s
gust,
m/s
humid.,
%
clouds,
%
prec.,
mm/h
press.,
hPa
HPBL,
m
27 february, sat
sat2723:00−20sse41296100 0.1 1017477
02:00−20se41396100 0.0 1015434
05:00−20se41396100 0.0 1013429
08:00−20ese4139497 0.0 1011359
11:00−17ese4108976 0.0 1011404
14:00−13ese48840 0.0 1009505
17:00−12e488829 0.0 1009568
20:00−16ese4109398 0.0 1010423
28 february, sun
sun2823:00−20e3109687 0.0 1011307
02:00−21ene399784 0.0 1011260
05:00−24ene379768 0.0 1012162
08:00−25ene269735 0.0 1012132
11:00−21ene369217 0.0 1012304
14:00−16ene358956 0.0 1012486
17:00−15ne369078 0.0 1013499
20:00−19nne239888 0.0 101448
1 march, mon
mon123:00−20nne239958 0.0 101739
02:00−22nne2210076 0.0 101820
05:00−23n129964 0.0 101920
08:00−24nnw11980 0.0 102020
11:00−18nnw01890 0.0 1020155
14:00−13ssw22810 0.0 1018380
17:00−12ssw248621 0.0 1017447
20:00−16s239624 0.0 101653
2 march, tue
tue223:00−17ssw399446 0.0 1014244
02:00−16s41192100 0.0 1011350
05:00−15s51192100 0.0 1008387
08:00−14s51294100 0.4 1005442
11:00−13s51193100 1.0 1004486
14:00−12s5993100 0.8 1002527
17:00−12s4993100 1.5 1001561
20:00−13s4894100 0.5 1001431
3 march, wed
wed323:00−13s3796100 0.8 1002237
02:00−14s249798 0.1 1001113
05:00−15s129799 0.2 100120
08:00−16ssw1297100 0.0 100120
11:00−11ssw129297 0.1 1001181
14:00−7w128895 0.1 1001396
17:00−5wnw119297 0.3 1001237
20:00−8nw399298 0.4 1002281